• In Czech Republic
  • List of Countries
  • For 7 days
  • Water Temperature
  • Satellite Maps
  • Weather Map
  • Weather Widgets
  • user-avatar
    Login

    Hourly Weather Edmundston

    Today, 21 October, Saturday

    Time Temperature Precipitation Wind Pressure Humidity
    00:00 +2°C° 0 mm 3 mps 690 mmHg 74%
    01:00 +2°C° 0 mm 3 mps 691 mmHg 75%
    02:00 +1°C° 0 mm 3 mps 691 mmHg 75%
    03:00 +1°C° 0 mm 3 mps 691 mmHg 76%
    04:00 +1°C° 0 mm 3 mps 691 mmHg 78%
    05:00 0°C° 0 mm 3 mps 692 mmHg 78%
    06:00 0°C° 0 mm 3 mps 692 mmHg 77%
    07:00 0°C° 0 mm 3 mps 692 mmHg 77%
    08:00 +3°C° 0 mm 2 mps 693 mmHg 70%
    09:00 +4°C° 0 mm 2 mps 693 mmHg 63%
    10:00 +6°C° 0 mm 2 mps 693 mmHg 56%
    11:00 +7°C° 0 mm 2 mps 693 mmHg 52%
    12:00 +9°C° 0 mm 1 mps 693 mmHg 48%
    13:00 +9°C° 0 mm 1 mps 693 mmHg 45%
    14:00 +9°C° 0 mm 1 mps 692 mmHg 48%
    15:00 +8°C° 0 mm 1 mps 692 mmHg 52%
    16:00 +6°C° 0 mm 2 mps 692 mmHg 56%
    17:00 +5°C° 0 mm 2 mps 692 mmHg 58%
    18:00 +5°C° 0 mm 2 mps 691 mmHg 61%
    19:00 +3°C° 0 mm 3 mps 691 mmHg 63%
    20:00 +2°C° 0 mm 3 mps 690 mmHg 64%
    21:00 +2°C° 0 mm 3 mps 690 mmHg 64%
    22:00 +1°C° 0 mm 4 mps 689 mmHg 65%
    23:00 +1°C° 0 mm 4 mps 688 mmHg 63%

    Tomorrow, 22 October, Sunday

    Time Temperature Precipitation Wind Pressure Humidity
    00:00 +1°C° 0 mm 4 mps 687 mmHg 61%
    01:00 +1°C° 0 mm 4 mps 687 mmHg 59%
    02:00 +1°C° 0 mm 4 mps 686 mmHg 59%
    03:00 +1°C° 0 mm 4 mps 685 mmHg 59%
    04:00 +1°C° 0 mm 4 mps 685 mmHg 59%
    05:00 +2°C° 0.3 mm 3 mps 685 mmHg 64%
    06:00 +2°C° 0.3 mm 3 mps 685 mmHg 68%
    07:00 +3°C° 0.3 mm 2 mps 684 mmHg 73%
    08:00 +3°C° 0.4 mm 4 mps 685 mmHg 74%
    09:00 +2°C° 0.4 mm 5 mps 685 mmHg 75%
    10:00 +2°C° 0.4 mm 7 mps 686 mmHg 76%
    11:00 +3°C° 0.3 mm 7 mps 687 mmHg 74%
    12:00 +4°C° 0.3 mm 6 mps 688 mmHg 72%
    13:00 +5°C° 0.3 mm 6 mps 689 mmHg 70%
    14:00 +5°C° 0 mm 5 mps 690 mmHg 72%
    15:00 +5°C° 0 mm 4 mps 691 mmHg 74%
    16:00 +4°C° 0 mm 3 mps 692 mmHg 75%
    17:00 +4°C° 0 mm 3 mps 693 mmHg 74%
    18:00 +4°C° 0 mm 3 mps 694 mmHg 72%
    19:00 +3°C° 0 mm 4 mps 695 mmHg 70%
    20:00 +3°C° 0 mm 4 mps 695 mmHg 69%
    21:00 +1°C° 0 mm 4 mps 696 mmHg 68%
    22:00 +1°C° 0 mm 4 mps 696 mmHg 67%
    23:00 +1°C° 0 mm 5 mps 697 mmHg 68%

    Day after tomorrow, 23 October, Monday

    Time Temperature Precipitation Wind Pressure Humidity
    00:00 +1°C° 0 mm 5 mps 698 mmHg 69%
    01:00 +1°C° 0 mm 6 mps 699 mmHg 70%
    02:00 +1°C° 0 mm 6 mps 700 mmHg 69%
    03:00 +1°C° 0 mm 6 mps 701 mmHg 69%
    04:00 +1°C° 0 mm 6 mps 702 mmHg 68%
    05:00 +1°C° 0 mm 6 mps 703 mmHg 68%
    06:00 +1°C° 0 mm 6 mps 704 mmHg 67%
    07:00 +1°C° 0 mm 6 mps 705 mmHg 66%
    08:00 +2°C° 0 mm 6 mps 705 mmHg 62%
    09:00 +4°C° 0 mm 7 mps 706 mmHg 58%
    10:00 +5°C° 0 mm 7 mps 707 mmHg 54%
    11:00 +6°C° 0 mm 7 mps 707 mmHg 52%
    12:00 +8°C° 0 mm 6 mps 708 mmHg 50%
    13:00 +9°C° 0 mm 6 mps 708 mmHg 48%
    14:00 +8°C° 0 mm 4 mps 708 mmHg 53%
    15:00 +8°C° 0 mm 3 mps 708 mmHg 57%
    16:00 +7°C° 0 mm 2 mps 708 mmHg 61%
    17:00 +7°C° 0 mm 2 mps 708 mmHg 60%
    18:00 +6°C° 0 mm 2 mps 708 mmHg 60%
    19:00 +5°C° 0 mm 3 mps 708 mmHg 60%
    20:00 +5°C° 0 mm 3 mps 707 mmHg 59%
    21:00 +5°C° 0 mm 4 mps 706 mmHg 58%
    22:00 +6°C° 0 mm 4 mps 706 mmHg 58%
    23:00 +6°C° 0.2 mm 5 mps 705 mmHg 59%

    24 October, Tuesday

    Time Temperature Precipitation Wind Pressure Humidity
    00:00 +6°C° 0.2 mm 5 mps 705 mmHg 59%
    01:00 +7°C° 0.2 mm 5 mps 704 mmHg 60%
    02:00 +7°C° 0 mm 5 mps 704 mmHg 57%
    03:00 +8°C° 0 mm 6 mps 704 mmHg 55%
    04:00 +9°C° 0 mm 6 mps 704 mmHg 52%
    05:00 +9°C° 0 mm 6 mps 704 mmHg 54%
    06:00 +9°C° 0 mm 6 mps 704 mmHg 57%
    07:00 +9°C° 0 mm 6 mps 704 mmHg 60%
    08:00 +10°C° 0 mm 8 mps 704 mmHg 57%
    09:00 +10°C° 0 mm 9 mps 705 mmHg 54%
    10:00 +11°C° 0 mm 10 mps 705 mmHg 51%
    11:00 +11°C° 0 mm 10 mps 705 mmHg 48%
    12:00 +11°C° 0 mm 9 mps 704 mmHg 45%
    13:00 +11°C° 0 mm 8 mps 704 mmHg 42%
    14:00 +10°C° 0 mm 6 mps 704 mmHg 46%
    15:00 +9°C° 0 mm 5 mps 704 mmHg 49%
    16:00 +9°C° 0 mm 3 mps 704 mmHg 52%
    17:00 +9°C° 0.1 mm 3 mps 704 mmHg 57%
    18:00 +8°C° 0.1 mm 3 mps 704 mmHg 61%
    19:00 +7°C° 0.1 mm 2 mps 704 mmHg 66%
    20:00 +7°C° 0.1 mm 2 mps 703 mmHg 68%
    21:00 +7°C° 0.1 mm 1 mps 702 mmHg 71%
    22:00 +7°C° 0.1 mm 1 mps 701 mmHg 73%
    23:00 +6°C° 0.2 mm 2 mps 700 mmHg 73%

    25 October, Wednesday

    Time Temperature Precipitation Wind Pressure Humidity
    00:00 +4°C° 0.2 mm 3 mps 698 mmHg 72%
    01:00 +4°C° 0.2 mm 4 mps 697 mmHg 71%
    02:00 +4°C° 0.2 mm 4 mps 695 mmHg 72%
    03:00 +4°C° 0.2 mm 4 mps 694 mmHg 72%
    04:00 +5°C° 0.2 mm 3 mps 693 mmHg 72%
    05:00 +5°C° 0.4 mm 3 mps 692 mmHg 75%
    06:00 +6°C° 0.4 mm 2 mps 691 mmHg 78%
    07:00 +6°C° 0.4 mm 2 mps 691 mmHg 82%
    08:00 +5°C° 0.2 mm 3 mps 691 mmHg 81%
    09:00 +6°C° 0.2 mm 4 mps 690 mmHg 80%
    10:00 +7°C° 0.2 mm 5 mps 690 mmHg 79%
    11:00 +5°C° 0.3 mm 6 mps 692 mmHg 79%
    12:00 +5°C° 0.3 mm 7 mps 693 mmHg 79%
    13:00 +4°C° 0.3 mm 8 mps 694 mmHg 79%
    14:00 +2°C° 0.2 mm 8 mps 696 mmHg 79%
    15:00 +1°C° 0.2 mm 8 mps 698 mmHg 80%
    16:00 0°C° 0.2 mm 7 mps 701 mmHg 80%
    17:00 -1°C° 0.1 mm 7 mps 702 mmHg 80%
    18:00 -1°C° 0.1 mm 6 mps 704 mmHg 81%
    19:00 -1°C° 0.1 mm 5 mps 705 mmHg 81%
    20:00 -2°C° 0 mm 5 mps 706 mmHg 82%
    21:00 -2°C° 0 mm 4 mps 707 mmHg 82%
    22:00 -2°C° 0 mm 3 mps 707 mmHg 83%
    23:00 -3°C° 0 mm 2 mps 708 mmHg 83%

    26 October, Thursday

    Time Temperature Precipitation Wind Pressure Humidity
    00:00 -1°C° 0 mm 1 mps 708 mmHg 84%
    01:00 -2°C° 0 mm 1 mps 709 mmHg 84%
    02:00 -2°C° 0 mm 1 mps 709 mmHg 84%
    03:00 -2°C° 0 mm 1 mps 709 mmHg 83%
    04:00 -2°C° 0 mm 1 mps 709 mmHg 82%
    05:00 -2°C° 0 mm 1 mps 709 mmHg 82%
    06:00 -3°C° 0 mm 2 mps 709 mmHg 81%
    07:00 -3°C° 0 mm 2 mps 709 mmHg 81%
    08:00 -2°C° 0 mm 3 mps 709 mmHg 76%
    09:00 -1°C° 0 mm 3 mps 709 mmHg 71%
    10:00 0°C° 0 mm 3 mps 709 mmHg 67%
    11:00 0°C° 0 mm 3 mps 709 mmHg 65%
    12:00 +1°C° 0 mm 3 mps 709 mmHg 63%
    13:00 +2°C° 0 mm 3 mps 708 mmHg 61%
    14:00 +1°C° 0 mm 3 mps 708 mmHg 63%
    15:00 +1°C° 0 mm 3 mps 708 mmHg 65%
    16:00 +2°C° 0 mm 2 mps 708 mmHg 67%
    17:00 0°C° 0 mm 3 mps 709 mmHg 68%
    18:00 0°C° 0 mm 3 mps 709 mmHg 69%
    19:00 -1°C° 0 mm 3 mps 709 mmHg 69%
    20:00 -1°C° 0 mm 3 mps 709 mmHg 71%
    21:00 -1°C° 0 mm 3 mps 709 mmHg 72%
    22:00 -2°C° 0 mm 3 mps 709 mmHg 74%
    23:00 -2°C° 0 mm 3 mps 709 mmHg 76%
    Show more